Simultaneous Nadir Overpasses (SNOs) Predictions

Prediction of SNOs between METOP-B and NOAA-19 Satellite Orbit:

Table of predicted SNOs for the next 14.0 days since TLE Epoch: 1/16/2021
Index Date (METOP-B) Time (METOP-B) Lat,Lon (METOP-B) SZA (METOP-B ) Date (NOAA-19) Time (NOAA-19) Lat,Lon (NOAA-19) SZA (NOAA-19 ) Distance(km) Time Diff (sec)
1 01/17/2021 23:14:19 80.35,-142.45 101.61 01/17/2021 23:13:04 80.36,-142.34 101.60 2.35 75
2 01/18/2021 00:05:00 -80.35, 24.90 78.40 01/18/2021 00:03:59 -80.36, 24.88 78.41 1.20 61
3 01/18/2021 00:55:40 80.36,-167.60 101.62 01/18/2021 00:55:04 80.35,-167.69 101.59 2.46 36
4 01/18/2021 01:46:22 -80.34, -0.56 78.43 01/18/2021 01:45:59 -80.35, -0.48 78.42 2.07 23
5 01/18/2021 02:37:02 80.35, 166.94 101.59 01/18/2021 02:37:04 80.34, 166.96 101.58 1.59 2
6 01/18/2021 03:27:43 -80.36, -25.70 78.42 01/18/2021 03:27:59 -80.34, -25.83 78.44 2.71 16
7 01/18/2021 04:18:24 80.34, 141.48 101.56 01/18/2021 04:19:04 80.33, 141.61 101.56 2.77 40
8 01/18/2021 05:09:05 -80.35, -51.16 78.45 01/18/2021 05:09:59 -80.34, -51.18 78.45 1.28 54
9 01/29/2021 02:09:09 80.37, 174.13 98.97 01/29/2021 02:08:09 80.38, 173.99 98.95 2.71 60
10 01/29/2021 02:59:51 -80.36, -18.68 81.07 01/29/2021 02:59:04 -80.38, -18.77 81.07 2.52 47
11 01/29/2021 03:50:31 80.36, 148.67 98.93 01/29/2021 03:50:09 80.37, 148.64 98.93 0.90 22
12 01/29/2021 04:41:13 -80.35, -44.14 81.10 01/29/2021 04:41:04 -80.37, -44.12 81.09 2.04 9
13 01/29/2021 05:31:53 80.35, 123.21 98.89 01/29/2021 05:32:09 80.36, 123.28 98.91 1.66 16
14 01/29/2021 06:22:35 -80.34, -69.60 81.14 01/29/2021 06:23:04 -80.36, -69.47 81.10 3.20 29
15 01/29/2021 07:13:14 80.37, 98.06 98.90 01/29/2021 07:14:09 80.35, 97.93 98.89 3.10 55



Historial Predications of SNOs between METOP-B and NOAA-19
